Погода в Жидке

Россия / Забайкальский край     51°46′11″N   117°13′13″E
темп.,
°C
ветер,
м/с
пор.,
м/с
влажн.,
%
обл.,
%
осадки,
мм/ч
давл.,
гПа
погр.,
м
26 июля, пн
пн2600:00+13ссз129766 0.1 100638
03:00+13ссз129796 0.1 100680
06:00+13ссз2397100 0.0 100694
09:00+14с1391100 0.0 1006328
12:00+17св248178 0.1 1006732
15:00+17ссв458814 1.1 1006483
18:00+18св58885 1.7 1005799
21:00+15св22925 2.4 100722
27 июля, вт
вт2700:00+13ссв22945 0.0 100721
03:00+11с11953 0.0 100712
06:00+11юв00960 0.0 100710
09:00+17св128441 0.0 1007440
12:00+21всв236653 0.1 10051162
15:00+23вюв126096 0.5 10031234
18:00+22с1268100 0.9 1002622
21:00+16ссв1184100 1.3 100311
28 июля, ср
ср2800:00+14зсз018994 0.3 100411
03:00+13з1191100 0.8 100411
06:00+13сз1194100 0.0 100411
09:00+17ссз118811 0.3 1004286
12:00+22юв116629 0.1 10021086
15:00+23зсз116537 1.5 10011150
18:00+23зюз22646 0.6 1001948
21:00+18всв1183100 4.1 100111
29 июля, чт
чт2900:00+16ююв1189100 0.6 100211
03:00+14з009469 1.8 100211
06:00+14в009517 0.8 100211
09:00+18с118613 0.8 1002352
12:00+23с126611 0.5 10001071
15:00+23ссз226812 2.0 9991171
18:00+22ссв237912 3.9 999354
21:00+17св22894 4.6 100011
30 июля, пт
пт3000:00+15св119310 0.0 100111
03:00+13св11958 0.0 100111
06:00+13св1196100 0.0 100213
09:00+17св2486100 0.0 1002355
12:00+21всв4661100 0.0 10011117
15:00+24св4548100 0.0 10011635
18:00+23всв4653100 0.0 10011039
21:00+16св226778 0.0 100317